Erie, CO

10:48 PM MDT on October 17, 2019 (GMT -0600)
Erie Municipal Airport

Weather History for KEIK - September, 2019

Change the Weather History Date:

Monday, September 16, 2019

  Actual Average (KBJC) Record (KBJC)
Temperature  
Mean Temperature 70 °F -  
Max Temperature 89 °F 73 °F 98 °F (2000)
Min Temperature 52 °F 50 °F 36 °F (1987)
Cooling Degree Days 6    
Growing Degree Days 20 (Base 50)    
Moisture  
Dew Point 35 °F    
Average Humidity 35    
Maximum Humidity 68    
Minimum Humidity 10    
Precipitation  
Precipitation 0.00 in - - ()
Sea Level Pressure  
Sea Level Pressure 30.02 in    
Wind  
Wind Speed 3 mph (South)    
Max Wind Speed 9 mph    
Max Gust Speed -    
Visibility 10 miles    
Events      
Averages and records for this station are not official NWS values.
T = Trace of Precipitation, MM = Missing Value Source: NWS Daily Summary

Daily Weather History Graph

Daily Weather History Graph

Search for Another Location

Airport or City:

Astronomy

Sep. 16, 2019 Rise Set
Actual Time 6:41 AM MDT 7:07 PM MDT
Civil Twilight 6:14 AM MDT 7:34 PM MDT
Nautical Twilight 5:42 AM MDT 8:06 PM MDT
Astronomical Twilight 5:10 AM MDT 8:39 PM MDT
Moon 8:43 PM MDT (9/16) 8:51 AM MDT (9/16)
Length of Visible Light 13h 19m
Length of Day
12h 25m
Waning Gibbous, 94% of the Moon is Illuminated
Sep 16
Waning Gibbous
Sep 21
Last Quarter
Sep 28
New
Oct 5
First Quarter
Oct 13
Full

Hourly Weather History & Observations

Time (MDT) Temp. Dew Point Humidity Pressure Visibility Wind Dir Wind Speed Gust Speed Precip Events Conditions
12:12 AM 57.2 °F 40.5 °F 54% 30.05 in 10.0 mi SW 3.5 mph - N/A   Clear
12:30 AM 57.0 °F 39.2 °F 51% 30.04 in 10.0 mi SSW 3.5 mph - N/A   Clear
12:52 AM 56.3 °F 39.9 °F 54% 30.04 in 10.0 mi SSW 3.5 mph - N/A   Clear
1:11 AM 55.0 °F 40.5 °F 58% 30.05 in 10.0 mi SSW 3.5 mph - N/A   Clear
1:29 AM 54.3 °F 41.0 °F 61% 30.05 in 10.0 mi Calm Calm - N/A   Clear
1:52 AM 55.4 °F 40.1 °F 56% 30.05 in 10.0 mi SW 8.1 mph - N/A   Clear
2:12 AM 55.4 °F 39.7 °F 56% 30.05 in 10.0 mi SSW 3.5 mph - N/A   Clear
2:30 AM 56.1 °F 40.1 °F 55% 30.05 in 10.0 mi Calm Calm - N/A   Clear
2:54 AM 57.2 °F 39.6 °F 52% 30.05 in 10.0 mi Calm Calm - N/A   Clear
3:12 AM 56.7 °F 40.1 °F 54% 30.05 in 10.0 mi SSW 3.5 mph - N/A   Clear
3:29 AM 56.7 °F 39.7 °F 53% 30.04 in 10.0 mi SSW 4.6 mph - N/A   Clear
3:52 AM 55.6 °F 40.3 °F 56% 30.03 in 10.0 mi Calm Calm - N/A   Clear
4:11 AM 55.9 °F 40.5 °F 56% 30.04 in 10.0 mi Calm Calm - N/A   Clear
4:34 AM 55.8 °F 40.3 °F 56% 30.04 in 10.0 mi Calm Calm - N/A   Clear
4:52 AM 54.9 °F 41.4 °F 60% 30.04 in 10.0 mi Calm Calm - N/A   Clear
5:12 AM 54.7 °F 42.3 °F 63% 30.04 in 10.0 mi Calm Calm - N/A   Clear
5:30 AM 52.9 °F 42.4 °F 68% 30.04 in 10.0 mi SSW 4.6 mph - N/A   Clear
5:53 AM 52.9 °F 41.4 °F 65% 30.04 in 10.0 mi SSW 3.5 mph - N/A   Clear
6:13 AM 53.8 °F 40.8 °F 62% 30.04 in 10.0 mi Calm Calm - N/A   Clear
6:31 AM 55.2 °F 39.6 °F 56% 30.05 in 10.0 mi Calm Calm - N/A   Clear
6:54 AM 54.5 °F 40.6 °F 60% 30.05 in 10.0 mi Calm Calm - N/A   Clear
7:12 AM 54.3 °F 42.6 °F 65% 30.06 in 7.0 mi SSW 3.5 mph - N/A   Clear
7:30 AM 56.3 °F 41.4 °F 57% 30.06 in 10.0 mi Calm Calm - N/A   Clear
7:53 AM 57.4 °F 42.3 °F 57% 30.06 in 10.0 mi Calm Calm - N/A   Clear
8:12 AM 57.6 °F 43.0 °F 58% 30.07 in 10.0 mi SSW 3.5 mph - N/A   Clear
8:30 AM 59.9 °F 43.3 °F 54% 30.06 in 10.0 mi Calm Calm - N/A   Clear
8:54 AM 63.1 °F 41.9 °F 46% 30.06 in 10.0 mi SW 3.5 mph - N/A   Clear
9:11 AM 68.7 °F 38.3 °F 33% 30.06 in 10.0 mi Calm Calm - N/A   Clear
9:35 AM 71.1 °F 36.7 °F 28% 30.06 in 10.0 mi Calm Calm - N/A   Clear
9:53 AM 74.8 °F 33.6 °F 22% 30.06 in 10.0 mi SW 4.6 mph - N/A   Clear
10:11 AM 78.3 °F 34.5 °F 21% 30.05 in 10.0 mi South 5.8 mph - N/A   Clear
10:35 AM 80.4 °F 31.8 °F 17% 30.05 in 10.0 mi SSE 8.1 mph - N/A   Clear
10:53 AM 81.0 °F 28.9 °F 15% 30.05 in 10.0 mi Calm Calm - N/A   Clear
11:35 AM 83.8 °F 27.5 °F 13% 30.04 in 10.0 mi SE 5.8 mph - N/A   Clear
11:53 AM 85.1 °F 25.7 °F 11% 30.03 in 10.0 mi SE 3.5 mph - N/A   Clear
12:11 PM 85.3 °F 24.6 °F 11% 30.02 in 10.0 mi SE 5.8 mph - N/A   Clear
12:35 PM 85.6 °F 23.9 °F 10% 30.01 in 10.0 mi SE 5.8 mph - N/A   Clear
12:53 PM 85.3 °F 23.5 °F 10% 30.01 in 10.0 mi South 5.8 mph - N/A   Clear
1:12 PM 86.4 °F 24.1 °F 10% 30.01 in 10.0 mi East 5.8 mph - N/A   Clear
1:30 PM 86.7 °F 23.7 °F 10% 30.01 in 10.0 mi Calm Calm - N/A   Clear
1:54 PM 87.8 °F 24.8 °F 10% 29.99 in 10.0 mi SE 8.1 mph - N/A   Clear
2:13 PM 88.2 °F 24.8 °F 10% 29.99 in 10.0 mi SSE 8.1 mph - N/A   Clear
2:31 PM 88.3 °F 25.3 °F 10% 29.98 in 10.0 mi South 5.8 mph - N/A   Clear
2:53 PM 88.2 °F 24.4 °F 10% 29.98 in 10.0 mi SSE 3.5 mph - N/A   Clear
3:11 PM 88.7 °F 23.9 °F 10% 29.98 in 10.0 mi SSE 4.6 mph - N/A   Clear
3:29 PM 88.7 °F 25.2 °F 10% 29.97 in 10.0 mi East 8.1 mph - N/A   Clear
3:53 PM 88.2 °F 25.2 °F 10% 29.97 in 10.0 mi East 8.1 mph - N/A   Clear
4:11 PM 89.1 °F 25.5 °F 10% 29.97 in 10.0 mi South 9.2 mph - N/A   Clear
4:29 PM 86.0 °F 25.2 °F 11% 29.97 in 10.0 mi SE 3.5 mph - N/A   Clear
4:53 PM 85.5 °F 24.6 °F 11% 29.97 in 10.0 mi East 5.8 mph - N/A   Clear
5:12 PM 87.1 °F 26.1 °F 11% 29.97 in 10.0 mi East 6.9 mph - N/A   Clear
5:29 PM 86.7 °F 25.0 °F 11% 29.97 in 10.0 mi ENE 3.5 mph - N/A   Clear
5:53 PM 84.2 °F 27.3 °F 13% 29.97 in 10.0 mi ESE 3.5 mph - N/A   Clear
6:10 PM 83.8 °F 27.3 °F 13% 29.97 in 10.0 mi East 4.6 mph - N/A   Clear
6:33 PM 81.7 °F 27.7 °F 14% 29.97 in 10.0 mi East 4.6 mph - N/A   Clear
6:51 PM 78.6 °F 32.9 °F 19% 29.97 in 10.0 mi Calm Calm - N/A   Clear
7:11 PM 77.2 °F 32.7 °F 20% 29.97 in 10.0 mi ESE 4.6 mph - N/A   Clear
7:53 PM 69.8 °F 38.8 °F 32% 29.97 in 10.0 mi Calm Calm - N/A   Clear
8:12 PM 70.2 °F 37.6 °F 30% 29.98 in 10.0 mi South 5.8 mph - N/A   Scattered Clouds
8:30 PM 76.1 °F 39.2 °F 26% 29.99 in 10.0 mi South 8.1 mph - N/A   Scattered Clouds
8:54 PM 75.2 °F 40.8 °F 29% 29.99 in 10.0 mi South 5.8 mph - N/A   Clear
9:12 PM 71.6 °F 41.2 °F 33% 29.99 in 10.0 mi South 4.6 mph - N/A   Clear
9:35 PM 68.9 °F 43.0 °F 39% 29.99 in 10.0 mi SSW 5.8 mph - N/A   Clear
9:52 PM 68.4 °F 42.6 °F 39% 29.99 in 10.0 mi South 5.8 mph - N/A   Clear
10:12 PM 66.7 °F 43.9 °F 44% 29.99 in 10.0 mi WSW 3.5 mph - N/A   Clear
10:30 PM 67.1 °F 44.1 °F 43% 29.99 in 10.0 mi SW 4.6 mph - N/A   Clear
10:53 PM 67.1 °F 43.9 °F 43% 29.99 in 10.0 mi SSW 5.8 mph - N/A   Clear
11:11 PM 66.4 °F 42.8 °F 42% 29.98 in 10.0 mi WSW 4.6 mph - N/A   Clear
11:34 PM 63.3 °F 43.7 °F 49% 29.97 in 10.0 mi South 3.5 mph - N/A   Clear
11:52 PM 63.0 °F 42.8 °F 48% 29.97 in 10.0 mi Calm Calm - N/A   Clear